EN

Hourly Weather Dzieczyna

Today, 30 October, Friday

Time Temperature Precipitation Wind Pressure Humidity
00:00 +6°C° 0 mm 4 mps 755 mmHg 84%
01:00 +7°C° 0 mm 3 mps 755 mmHg 86%
02:00 +7°C° 0 mm 3 mps 755 mmHg 86%
03:00 +7°C° 0 mm 3 mps 755 mmHg 85%
04:00 +7°C° 0 mm 3 mps 754 mmHg 85%
05:00 +7°C° 0.2 mm 3 mps 754 mmHg 86%
06:00 +7°C° 0.2 mm 3 mps 754 mmHg 87%
07:00 +7°C° 0.2 mm 3 mps 754 mmHg 88%
08:00 +7°C° 1 mm 3 mps 753 mmHg 89%
09:00 +7°C° 1 mm 4 mps 753 mmHg 91%
10:00 +7°C° 1 mm 4 mps 753 mmHg 93%
11:00 +7°C° 1.4 mm 4 mps 753 mmHg 94%
12:00 +8°C° 1.4 mm 4 mps 752 mmHg 95%
13:00 +10°C° 1.4 mm 4 mps 752 mmHg 96%
14:00 +10°C° 0.7 mm 4 mps 752 mmHg 95%
15:00 +10°C° 0.7 mm 5 mps 752 mmHg 94%
16:00 +11°C° 0.7 mm 6 mps 752 mmHg 92%
17:00 +11°C° 0.3 mm 6 mps 753 mmHg 93%
18:00 +11°C° 0.3 mm 6 mps 753 mmHg 93%
19:00 +11°C° 0.3 mm 6 mps 753 mmHg 94%
20:00 +11°C° 0.5 mm 6 mps 753 mmHg 93%
21:00 +11°C° 0.5 mm 6 mps 754 mmHg 93%
22:00 +13°C° 0.5 mm 6 mps 754 mmHg 93%
23:00 +13°C° 0.3 mm 6 mps 755 mmHg 93%

Tomorrow, 31 October, Saturday

Time Temperature Precipitation Wind Pressure Humidity
00:00 +13°C° 0.3 mm 6 mps 755 mmHg 93%
01:00 +13°C° 0.3 mm 6 mps 755 mmHg 93%
02:00 +13°C° 0.1 mm 5 mps 756 mmHg 93%
03:00 +12°C° 0.1 mm 4 mps 756 mmHg 93%
04:00 +12°C° 0.1 mm 4 mps 756 mmHg 94%
05:00 +12°C° 0 mm 3 mps 757 mmHg 94%
06:00 +11°C° 0 mm 3 mps 757 mmHg 95%
07:00 +12°C° 0 mm 2 mps 758 mmHg 96%
08:00 +12°C° 0 mm 2 mps 758 mmHg 95%
09:00 +13°C° 0 mm 1 mps 758 mmHg 94%
10:00 +13°C° 0 mm 1 mps 758 mmHg 93%
11:00 +14°C° 0 mm 1 mps 758 mmHg 89%
12:00 +13°C° 0 mm 0 mps 758 mmHg 84%
13:00 +14°C° 0 mm 0 mps 758 mmHg 80%
14:00 +14°C° 0 mm 0 mps 758 mmHg 82%
15:00 +14°C° 0 mm 1 mps 758 mmHg 84%
16:00 +14°C° 0 mm 1 mps 758 mmHg 85%
17:00 +14°C° 0 mm 1 mps 758 mmHg 87%
18:00 +13°C° 0 mm 2 mps 758 mmHg 88%
19:00 +13°C° 0 mm 2 mps 758 mmHg 89%
20:00 +11°C° 0 mm 3 mps 758 mmHg 90%
21:00 +11°C° 0 mm 3 mps 758 mmHg 90%
22:00 +11°C° 0 mm 4 mps 758 mmHg 91%
23:00 +10°C° 0 mm 4 mps 757 mmHg 91%

Day after tomorrow, 1 November, Sunday

Time Temperature Precipitation Wind Pressure Humidity
00:00 +10°C° 0 mm 4 mps 757 mmHg 92%
01:00 +8°C° 0 mm 4 mps 757 mmHg 92%
02:00 +8°C° 0 mm 4 mps 757 mmHg 92%
03:00 +8°C° 0 mm 4 mps 756 mmHg 91%
04:00 +8°C° 0 mm 4 mps 756 mmHg 91%
05:00 +8°C° 0 mm 4 mps 756 mmHg 90%
06:00 +8°C° 0 mm 4 mps 755 mmHg 89%
07:00 +8°C° 0 mm 4 mps 755 mmHg 89%
08:00 +10°C° 0 mm 4 mps 755 mmHg 86%
09:00 +11°C° 0 mm 4 mps 755 mmHg 83%
10:00 +12°C° 0 mm 4 mps 755 mmHg 79%
11:00 +13°C° 0 mm 4 mps 754 mmHg 77%
12:00 +14°C° 0 mm 4 mps 754 mmHg 75%
13:00 +15°C° 0 mm 4 mps 753 mmHg 73%
14:00 +14°C° 0 mm 4 mps 753 mmHg 75%
15:00 +14°C° 0 mm 4 mps 753 mmHg 78%
16:00 +13°C° 0 mm 4 mps 752 mmHg 80%
17:00 +13°C° 0.6 mm 4 mps 752 mmHg 84%
18:00 +13°C° 0.6 mm 4 mps 752 mmHg 88%
19:00 +12°C° 0.6 mm 4 mps 752 mmHg 92%
20:00 +12°C° 0.2 mm 4 mps 752 mmHg 91%
21:00 +13°C° 0.2 mm 4 mps 752 mmHg 90%
22:00 +13°C° 0.2 mm 4 mps 752 mmHg 89%
23:00 +13°C° 0 mm 4 mps 752 mmHg 89%

2 November, Monday

Time Temperature Precipitation Wind Pressure Humidity
00:00 +13°C° 0 mm 4 mps 751 mmHg 89%
01:00 +12°C° 0 mm 4 mps 751 mmHg 89%
02:00 +12°C° 0 mm 4 mps 751 mmHg 89%
03:00 +12°C° 0 mm 4 mps 751 mmHg 89%
04:00 +12°C° 0 mm 4 mps 750 mmHg 89%
05:00 +12°C° 0.6 mm 4 mps 750 mmHg 90%
06:00 +13°C° 0.6 mm 4 mps 750 mmHg 91%
07:00 +13°C° 0.6 mm 4 mps 750 mmHg 91%
08:00 +14°C° 0.2 mm 5 mps 750 mmHg 88%
09:00 +15°C° 0.2 mm 5 mps 750 mmHg 84%
10:00 +16°C° 0.2 mm 5 mps 750 mmHg 81%
11:00 +16°C° 0 mm 5 mps 750 mmHg 79%
12:00 +17°C° 0 mm 5 mps 750 mmHg 77%
13:00 +17°C° 0 mm 5 mps 750 mmHg 75%
14:00 +17°C° 0 mm 5 mps 750 mmHg 77%
15:00 +17°C° 0 mm 5 mps 750 mmHg 79%
16:00 +17°C° 0 mm 5 mps 750 mmHg 80%
17:00 +16°C° 0 mm 5 mps 751 mmHg 80%
18:00 +16°C° 0 mm 5 mps 751 mmHg 81%
19:00 +16°C° 0 mm 5 mps 751 mmHg 81%
20:00 +16°C° 0 mm 5 mps 751 mmHg 81%
21:00 +16°C° 0 mm 5 mps 751 mmHg 81%
22:00 +16°C° 0 mm 5 mps 751 mmHg 81%
23:00 +15°C° 0 mm 5 mps 752 mmHg 82%

3 November, Tuesday

Time Temperature Precipitation Wind Pressure Humidity
00:00 +15°C° 0 mm 4 mps 752 mmHg 84%
01:00 +15°C° 0 mm 4 mps 752 mmHg 85%
02:00 +15°C° 0 mm 4 mps 753 mmHg 85%
03:00 +14°C° 0 mm 4 mps 753 mmHg 85%
04:00 +14°C° 0 mm 4 mps 753 mmHg 85%
05:00 +14°C° 0 mm 4 mps 754 mmHg 87%
06:00 +13°C° 0 mm 4 mps 754 mmHg 89%
07:00 +13°C° 0 mm 3 mps 755 mmHg 91%
08:00 +13°C° 0 mm 3 mps 756 mmHg 85%
09:00 +14°C° 0 mm 3 mps 756 mmHg 79%
10:00 +14°C° 0 mm 3 mps 757 mmHg 74%
11:00 +15°C° 0 mm 2 mps 757 mmHg 71%
12:00 +16°C° 0 mm 2 mps 757 mmHg 68%
13:00 +16°C° 0 mm 1 mps 757 mmHg 65%
14:00 +16°C° 0 mm 1 mps 757 mmHg 68%
15:00 +15°C° 0 mm 1 mps 757 mmHg 71%
16:00 +14°C° 0 mm 0 mps 757 mmHg 74%
17:00 +14°C° 0.2 mm 1 mps 757 mmHg 76%
18:00 +14°C° 0.2 mm 1 mps 758 mmHg 79%
19:00 +14°C° 0.2 mm 2 mps 758 mmHg 82%
20:00 +13°C° 0.9 mm 2 mps 758 mmHg 85%
21:00 +13°C° 0.9 mm 2 mps 758 mmHg 88%
22:00 +13°C° 0.9 mm 2 mps 758 mmHg 91%
23:00 +13°C° 1.2 mm 2 mps 758 mmHg 93%

4 November, Wednesday

Time Temperature Precipitation Wind Pressure Humidity
00:00 +13°C° 1.2 mm 1 mps 758 mmHg 94%
01:00 +13°C° 1.2 mm 1 mps 758 mmHg 96%
02:00 +13°C° 1.4 mm 1 mps 758 mmHg 96%
03:00 +13°C° 1.4 mm 1 mps 757 mmHg 97%
04:00 +13°C° 1.4 mm 1 mps 757 mmHg 97%
05:00 +13°C° 1 mm 2 mps 758 mmHg 97%
06:00 +13°C° 1 mm 2 mps 758 mmHg 97%
07:00 +13°C° 1 mm 2 mps 758 mmHg 96%
08:00 +13°C° 0.2 mm 2 mps 758 mmHg 95%
09:00 +13°C° 0.2 mm 2 mps 758 mmHg 95%
10:00 +13°C° 0.2 mm 2 mps 758 mmHg 94%
11:00 +12°C° 0.1 mm 3 mps 758 mmHg 92%
12:00 +12°C° 0.1 mm 3 mps 759 mmHg 91%
13:00 +12°C° 0.1 mm 3 mps 759 mmHg 89%
14:00 +12°C° 0.1 mm 3 mps 759 mmHg 89%
15:00 +11°C° 0.1 mm 3 mps 759 mmHg 88%
16:00 +11°C° 0.1 mm 3 mps 759 mmHg 88%
17:00 +11°C° 0 mm 3 mps 760 mmHg 89%
18:00 +10°C° 0 mm 3 mps 760 mmHg 91%
19:00 +9°C° 0 mm 2 mps 761 mmHg 92%
20:00 +9°C° 0 mm 2 mps 761 mmHg 93%
21:00 +9°C° 0 mm 2 mps 761 mmHg 93%
22:00 +8°C° 0 mm 3 mps 762 mmHg 94%
23:00 +8°C° 0 mm 2 mps 762 mmHg 94%
Show more